SJ-11-08

Satellite information

Favourite Embed

Satellite Type and Status

PAYLOADIN ORBIT

Key statistics

Satellite SJ-11-08 at a glance.

Uptime

4014

Days in orbit

Revolutions

≈ 14.7

Per day

Orbit

SSO

Sun Synchronous Orbit

Inclination

98.3

Latest

Satellite identification and parameters

Extended collection of information and parameters for SJ-11-08.

Object identification

Identified? True

Debris? False

Object name: SJ-11-08

International designator: 2014-066A

Object number (NORAD): 40286

Object ID (CCSDS): 40286

Country: PEOPLES REPUBLIC OF CHINA (PRC)

Current information (Y/N): Y

RCS size: LARGE

Orbital parameters

Period: 98.247 minutes

Inclination: 98.3197 deg

SMA: 7052.991 km

Apoapsis: 682.649 km

Periapsis: 667.063 km

RAAN: 71.1807 deg

Eccentricy: 0.0011049

Argument of periapsis: 258.3903 deg

Mean anomaly: 101.606 deg

Mean motion: 14.6569218 rev/day

Mean motion (dot): 0.00001576 rev/day2

B* drag term: 0.00029856 1/REarth

Two-line elements (TLE)

Creation date: Oct. 21, 2025, 11:56 p.m.

Reference frame: TEME

Reference center: EARTH

Epoch: Oct. 21, 2025, 8:11 p.m. UTC

TLE line 0: 0 SJ-11-08

TLE line 1: 1 40286U 14066A 25294.84118240 .00001576 00000-0 29856-3 0 9999

TLE line 2: 2 40286 98.3197 71.1807 0011049 258.3903 101.6060 14.65692180586294

Live tracking on map

Real-time ground track for satellite SJ-11-08.

In-orbit conjunctions

There are no conjunctions computed for SJ-11-08, at the moment. Check back to stay up to date, as we update our databases every day.

Go to all conjunctions

Associated space launch

SJ-11-08 was lifted into orbit during the mission ‘Long March 2C | Shijian 11-08’, on board a Long March 2 space rocket.

The launch took place on Oct. 27, 2014, 6:59 a.m. from Launch Area 4 (SLS-2 / 603).

For more information about the launch, click the button.

Launch to space Long March 2C | Shijian 11-08
Long March 2C | Shijian 11-08

Agency: N/A

Status: Launch Successful

Launch date: Oct. 27, 2014, 6:59 a.m. UTC

Rocket: Long March 2

Launch pad: Launch Area 4 (SLS-2 / 603)

Location: Jiuquan Satellite Launch Center, People's Republic of China

...

Latest news about this satellite

There are no fresh news available about this satellite. Check back as we update our databases every day.


Newsletter sign-up

Weekly statistics, charts and insights to help you stay on top of the space industry.